When you browse on this site, cookies collect data to enhance your experience and personalize the content and advertising you see.
Visit our Privacy Policy to learn more. By continuing to use the site, you agree to this use of cookies and data.
  • In Austria
  • List of Countries
  • For 7 days
  • Water Temperature
  • Satellite Maps
  • Weather Map
  • News
  • Weather Widgets
  • user-avatar
    Login

    Hourly Weather Sydney

    Today, 20 November, Tuesday

    Time Temperature Precipitation Wind Pressure Humidity
    00:00 +16°C° 0 mm 2 mps 762 mmHg 84%
    01:00 +16°C° 0 mm 2 mps 762 mmHg 86%
    02:00 +16°C° 0 mm 2 mps 761 mmHg 88%
    03:00 +15°C° 0 mm 2 mps 761 mmHg 89%
    04:00 +16°C° 0 mm 2 mps 760 mmHg 86%
    05:00 +17°C° 0 mm 2 mps 760 mmHg 82%
    06:00 +18°C° 0 mm 2 mps 760 mmHg 79%
    07:00 +19°C° 0 mm 2 mps 760 mmHg 75%
    08:00 +19°C° 0 mm 3 mps 759 mmHg 72%
    09:00 +20°C° 0 mm 3 mps 759 mmHg 70%
    10:00 +26°C° 0 mm 3 mps 758 mmHg 53%
    11:00 +28°C° 0 mm 4 mps 758 mmHg 49%
    12:00 +29°C° 0 mm 5 mps 757 mmHg 44%
    13:00 +30°C° 0 mm 6 mps 756 mmHg 40%
    14:00 +29°C° 0 mm 6 mps 755 mmHg 43%
    15:00 +29°C° 0 mm 6 mps 755 mmHg 46%
    16:00 +27°C° 0 mm 8 mps 754 mmHg 53%
    17:00 +24°C° 0 mm 7 mps 754 mmHg 58%
    18:00 +23°C° 0 mm 7 mps 754 mmHg 63%
    19:00 +22°C° 0 mm 6 mps 754 mmHg 67%
    20:00 +22°C° 0 mm 6 mps 753 mmHg 71%
    21:00 +22°C° 0 mm 6 mps 753 mmHg 74%
    22:00 +21°C° 0 mm 4 mps 753 mmHg 77%
    23:00 +20°C° 0.3 mm 3 mps 753 mmHg 81%

    Tomorrow, 21 November, Wednesday

    Time Temperature Precipitation Wind Pressure Humidity
    00:00 +20°C° 0.3 mm 3 mps 753 mmHg 84%
    01:00 +19°C° 0.3 mm 3 mps 753 mmHg 88%
    02:00 +19°C° 0.3 mm 3 mps 752 mmHg 88%
    03:00 +19°C° 0.3 mm 3 mps 752 mmHg 89%
    04:00 +19°C° 0.3 mm 4 mps 751 mmHg 89%
    05:00 +21°C° 0 mm 4 mps 751 mmHg 83%
    06:00 +22°C° 0 mm 5 mps 751 mmHg 76%
    07:00 +24°C° 0 mm 6 mps 750 mmHg 70%
    08:00 +28°C° 0 mm 5 mps 750 mmHg 58%
    09:00 +30°C° 0 mm 5 mps 750 mmHg 47%
    10:00 +34°C° 0 mm 5 mps 750 mmHg 35%
    11:00 +34°C° 0.1 mm 5 mps 750 mmHg 37%
    12:00 +33°C° 0.1 mm 5 mps 749 mmHg 39%
    13:00 +33°C° 0.1 mm 6 mps 749 mmHg 41%
    14:00 +32°C° 0 mm 5 mps 749 mmHg 43%
    15:00 +30°C° 0 mm 5 mps 749 mmHg 44%
    16:00 +29°C° 0 mm 5 mps 748 mmHg 45%
    17:00 +28°C° 0 mm 5 mps 748 mmHg 49%
    18:00 +27°C° 0 mm 4 mps 748 mmHg 52%
    19:00 +26°C° 0 mm 4 mps 748 mmHg 56%
    20:00 +25°C° 0 mm 4 mps 749 mmHg 60%
    21:00 +23°C° 0 mm 4 mps 749 mmHg 64%
    22:00 +22°C° 0 mm 4 mps 749 mmHg 68%
    23:00 +21°C° 0 mm 4 mps 749 mmHg 72%

    Day after tomorrow, 22 November, Thursday

    Time Temperature Precipitation Wind Pressure Humidity
    00:00 +21°C° 0 mm 4 mps 748 mmHg 75%
    01:00 +20°C° 0 mm 4 mps 748 mmHg 79%
    02:00 +20°C° 0 mm 5 mps 748 mmHg 79%
    03:00 +20°C° 0 mm 5 mps 748 mmHg 78%
    04:00 +19°C° 0 mm 5 mps 747 mmHg 78%
    05:00 +19°C° 0 mm 5 mps 748 mmHg 66%
    06:00 +20°C° 0 mm 5 mps 748 mmHg 54%
    07:00 +20°C° 0 mm 6 mps 749 mmHg 41%
    08:00 +21°C° 0 mm 6 mps 749 mmHg 35%
    09:00 +23°C° 0 mm 7 mps 749 mmHg 29%
    10:00 +24°C° 0 mm 7 mps 749 mmHg 23%
    11:00 +24°C° 0 mm 8 mps 749 mmHg 20%
    12:00 +26°C° 0 mm 8 mps 748 mmHg 17%
    13:00 +26°C° 0 mm 8 mps 748 mmHg 13%
    14:00 +24°C° 0 mm 8 mps 748 mmHg 17%
    15:00 +24°C° 0 mm 9 mps 748 mmHg 21%
    16:00 +23°C° 0 mm 9 mps 748 mmHg 24%
    17:00 +21°C° 0 mm 9 mps 748 mmHg 29%
    18:00 +19°C° 0 mm 9 mps 749 mmHg 35%
    19:00 +17°C° 0 mm 10 mps 749 mmHg 40%
    20:00 +16°C° 0 mm 9 mps 749 mmHg 42%
    21:00 +16°C° 0 mm 9 mps 750 mmHg 45%
    22:00 +15°C° 0 mm 9 mps 750 mmHg 48%
    23:00 +15°C° 0 mm 8 mps 750 mmHg 48%

    23 November, Friday

    Time Temperature Precipitation Wind Pressure Humidity
    00:00 +15°C° 0 mm 8 mps 750 mmHg 49%
    01:00 +15°C° 0 mm 7 mps 749 mmHg 49%
    02:00 +14°C° 0 mm 7 mps 749 mmHg 51%
    03:00 +14°C° 0 mm 7 mps 749 mmHg 53%
    04:00 +13°C° 0 mm 6 mps 749 mmHg 55%
    05:00 +14°C° 0 mm 7 mps 750 mmHg 49%
    06:00 +16°C° 0 mm 8 mps 750 mmHg 44%
    07:00 +17°C° 0 mm 8 mps 750 mmHg 39%
    08:00 +18°C° 0 mm 9 mps 750 mmHg 34%
    09:00 +21°C° 0 mm 9 mps 750 mmHg 29%
    10:00 +22°C° 0 mm 9 mps 750 mmHg 24%
    11:00 +23°C° 0 mm 9 mps 749 mmHg 22%
    12:00 +24°C° 0 mm 8 mps 748 mmHg 21%
    13:00 +26°C° 0 mm 8 mps 748 mmHg 19%
    14:00 +26°C° 0 mm 8 mps 747 mmHg 20%
    15:00 +24°C° 0 mm 8 mps 747 mmHg 20%
    16:00 +24°C° 0 mm 8 mps 747 mmHg 21%
    17:00 +22°C° 0 mm 8 mps 748 mmHg 24%
    18:00 +19°C° 0 mm 9 mps 748 mmHg 28%
    19:00 +18°C° 0 mm 9 mps 749 mmHg 31%
    20:00 +17°C° 0.2 mm 9 mps 749 mmHg 35%
    21:00 +17°C° 0.2 mm 8 mps 749 mmHg 39%
    22:00 +16°C° 0.2 mm 8 mps 749 mmHg 43%
    23:00 +16°C° 0.1 mm 8 mps 748 mmHg 46%

    24 November, Saturday

    Time Temperature Precipitation Wind Pressure Humidity
    00:00 +16°C° 0.1 mm 8 mps 748 mmHg 50%
    01:00 +16°C° 0.1 mm 9 mps 748 mmHg 53%
    02:00 +16°C° 0 mm 8 mps 748 mmHg 55%
    03:00 +15°C° 0 mm 7 mps 748 mmHg 57%
    04:00 +15°C° 0 mm 6 mps 748 mmHg 60%
    05:00 +16°C° 0 mm 7 mps 749 mmHg 56%
    06:00 +17°C° 0 mm 7 mps 749 mmHg 53%
    07:00 +18°C° 0 mm 7 mps 749 mmHg 50%
    08:00 +21°C° 0 mm 7 mps 750 mmHg 46%
    09:00 +22°C° 0 mm 7 mps 750 mmHg 42%
    10:00 +23°C° 0 mm 7 mps 750 mmHg 38%
    11:00 +23°C° 0 mm 6 mps 750 mmHg 38%
    12:00 +23°C° 0 mm 6 mps 749 mmHg 39%
    13:00 +23°C° 0 mm 6 mps 749 mmHg 39%
    14:00 +23°C° 0 mm 6 mps 750 mmHg 42%
    15:00 +22°C° 0 mm 6 mps 750 mmHg 45%
    16:00 +22°C° 0 mm 6 mps 750 mmHg 48%
    17:00 +21°C° 0 mm 6 mps 751 mmHg 51%
    18:00 +21°C° 0 mm 6 mps 751 mmHg 53%
    19:00 +20°C° 0 mm 6 mps 752 mmHg 56%
    20:00 +19°C° 0 mm 6 mps 752 mmHg 57%
    21:00 +19°C° 0 mm 6 mps 753 mmHg 58%
    22:00 +17°C° 0 mm 6 mps 753 mmHg 59%
    23:00 +17°C° 0 mm 6 mps 753 mmHg 61%

    25 November, Sunday

    Time Temperature Precipitation Wind Pressure Humidity
    00:00 +16°C° 0 mm 6 mps 753 mmHg 63%
    01:00 +15°C° 0 mm 5 mps 753 mmHg 65%
    02:00 +14°C° 0 mm 5 mps 752 mmHg 67%
    03:00 +14°C° 0 mm 5 mps 752 mmHg 69%
    04:00 +13°C° 0 mm 5 mps 752 mmHg 70%
    05:00 +15°C° 0 mm 4 mps 753 mmHg 63%
    06:00 +17°C° 0 mm 4 mps 753 mmHg 56%
    07:00 +19°C° 0 mm 4 mps 753 mmHg 49%
    08:00 +21°C° 0 mm 4 mps 753 mmHg 43%
    09:00 +24°C° 0 mm 3 mps 753 mmHg 38%
    10:00 +26°C° 0 mm 3 mps 752 mmHg 32%
    11:00 +26°C° 0 mm 3 mps 752 mmHg 32%
    12:00 +27°C° 0 mm 4 mps 752 mmHg 31%
    13:00 +27°C° 0 mm 4 mps 751 mmHg 31%
    14:00 +26°C° 0 mm 4 mps 751 mmHg 38%
    15:00 +23°C° 0 mm 4 mps 751 mmHg 44%
    16:00 +22°C° 0 mm 4 mps 751 mmHg 51%
    17:00 +21°C° 0 mm 4 mps 751 mmHg 57%
    18:00 +20°C° 0 mm 3 mps 752 mmHg 62%
    19:00 +19°C° 0 mm 3 mps 752 mmHg 68%
    20:00 +18°C° 0 mm 3 mps 752 mmHg 72%
    21:00 +17°C° 0 mm 3 mps 752 mmHg 77%
    22:00 +17°C° 0 mm 3 mps 753 mmHg 81%
    23:00 +16°C° 0.1 mm 3 mps 753 mmHg 83%
    Show more